Regional Weather Roundup
Issued by NWS Sioux Falls, SD

Home | Current Version | Previous Version | Text Only | Print | Product List | Glossary On
Versions: 1 2 3 4 5 6 7 8 9 10 11 12 13 14 15 16 17 18 19 20 21 22 23 24 25 26 27 28 29 30 31 32 33 34 35 36 37 38 39 40 41 42 43 44 45 46 47 48 49 50
000
ASUS43 KFSD 272110
RWRFSD

WEATHER ROUNDUP FOR SE SOUTH DAKOTA/SW MINNESOTA/NW IOWA
NATIONAL WEATHER SERVICE SIOUX FALLS SD
300 PM CST SAT DEC 27 2014

NOTE: "FAIR" INDICATES FEW OR NO CLOUDS BELOW 12,000 FEET WITH NO
SIGNIFICANT WEATHER AND OR OBSTRUCTIONS TO VISIBILITY.


SDZ038>040-050-052>070-272200-
SOUTHEAST SOUTH DAKOTA

CITY           SKY/WX    TMP DP  RH WIND       PRES   REMARKS
CHAMBERLAIN    SUNNY     22  14  73 W6        30.12F WCI  14
HURON          CLOUDY    19  12  74 SW5       30.12F WCI  12
MADISON        FAIR      14  14 100 W9        30.11S WCI   2
MITCHELL       SUNNY     21  13  71 SW7       30.15F WCI  12
SIOUX FALLS    SUNNY     15   9  76 W7        30.14F WCI   5
WINNER         FAIR      24  15  68 W10       30.12F WCI  14
YANKTON        SUNNY     19  12  73 W8        30.19S WCI   9
$$

MNZ071-072-080-081-089-090-097-098-272200-
SOUTHWEST MINNESOTA

CITY           SKY/WX    TMP DP  RH WIND       PRES   REMARKS
FAIRMONT       SUNNY     19   9  63 W9        30.12R WCI   9
JACKSON        SUNNY     19  12  73 W13       30.12R WCI   7
LUVERNE        SUNNY     18  10  73 W8        30.15S WCI   7
MARSHALL       SUNNY     19   9  63 W13       30.11S WCI   7
MONTEVIDEO     SUNNY     21  18  86 W6        30.11S WCI  14
PIPESTONE      SUNNY     12   9  85 W9        30.10F WCI   0
REDWOOD FALLS  SUNNY     18   9  68 W10       30.12F WCI   6
TRACY          SUNNY     19  12  76 W8        30.11S WCI   8
WINDOM         SUNNY     18  10  73 W13       30.11R WCI   4
WORTHINGTON    SUNNY     16 -27  13 W13       30.12R WCI   2
$$

IAZ001>003-012>014-020>022-031-032-NEZ013-014-SDZ071-272200-
NORTHWEST IOWA

CITY           SKY/WX    TMP DP  RH WIND       PRES   REMARKS
CHEROKEE       SUNNY     19  14  81 W9        30.18R WCI   8
DENISON        SUNNY     23  18  80 W10       30.17F WCI  12
ESTHERVILLE    SUNNY     19  11  70 W10       30.13R WCI   7
LE MARS        SUNNY     18  12  79 W8        30.20R WCI   7
ORANGE CITY    SUNNY     16   9  73 W14       30.16R WCI   1
SHELDON        SUNNY     16  12  86 W10       30.15R WCI   3
SIOUX CITY     SUNNY     22  12  65 W7        30.20F WCI  13
SPENCER        SUNNY     20  12  71 W10       30.14F WCI   9
STORM LAKE     SUNNY     18  14  86 W13       30.16S WCI   4
$$

ABBREVIATIONS USED IN REMARKS
   TC - TEMPERATURE IN CELSIUS
  WCI - WIND CHILL INDEX
   HX - HEAT INDEX
  VSB - VISIBILITY



USA.gov is the U.S. government's official web portal to all federal, state and local government web resources and services.